Weather History for Ireland West Airport Knock, Ireland

Change the Weather History Date:

Monday, September 23, 2013

  Actual Average Record
Temperature  
Mean Temperature 62 °F -  
Max Temperature 69 °F - - ()
Min Temperature 54 °F - - ()
Degree Days  
Heating Degree Days 4    
Growing Degree Days 12 (Base 50)    
Moisture  
Dew Point 59 °F    
Average Humidity 89    
Maximum Humidity 100    
Minimum Humidity 78    
Precipitation  
Precipitation 0.00 in - - ()
Sea Level Pressure  
Sea Level Pressure 30.13 in    
Wind  
Wind Speed 10 mph ()    
Max Wind Speed 18 mph    
Max Gust Speed 28 mph    
Visibility 5.7 miles    
Events Fog    
T = Trace of Precipitation, MM = Missing Value Source: Averaged Metar Reports

Daily Weather History Graph

Daily Weather History Graph

Search for Another Location

Airport:

Trip Planner

Search our weather history database for the weather conditions in past years. The results will help you decide how hot, cold, wet, or windy it might be!

Date:

Astronomy

Sep. 23, 2013 Rise Set
Actual Time 7:22 AM IST 7:31 PM IST
Civil Twilight 6:47 AM IST 8:06 PM IST
Nautical Twilight 6:05 AM IST 8:47 PM IST
Astronomical Twilight 5:21 AM IST 9:31 PM IST
Moon 9:11 PM IST (9/23) 12:09 PM IST (9/23)
Length of Visible Light 13h 18m
Length of Day
12h 08m
Waning Gibbous, 83% of the Moon is Illuminated
Sep 23
Waning Gibbous
Sep 27
Last Quarter
Oct 5
New
Oct 12
First Quarter
Oct 19
Full

Hourly Weather History & Observations

Time (IST) Temp. Dew Point Humidity Pressure Visibility Wind Dir Wind Speed Gust Speed Precip Events Conditions
1:00 AM 59 °F 57 °F 92% 30.23 in - SE 6.7 mph - -  
6:00 AM 55.4 °F 55.4 °F 100% 30.15 in 6.2 mi SE 9.2 mph - N/A   Mostly Cloudy
6:30 AM 55.4 °F 53.6 °F 94% 30.15 in 6.2 mi SE 8.1 mph - N/A   Mostly Cloudy
7:00 AM 55 °F 55 °F 100% 30.17 in 11 mi SE 8.9 mph - -   Overcast
7:00 AM 55.4 °F 55.4 °F 100% 30.15 in 6.2 mi SE 9.2 mph - N/A   Mostly Cloudy
7:30 AM 55.4 °F 55.4 °F 100% 30.15 in 5.6 mi SSE 6.9 mph - N/A   Mostly Cloudy
8:00 AM 55.4 °F 55.4 °F 100% 30.15 in 1.7 mi SSE 11.5 mph - N/A   Scattered Clouds
8:30 AM 55.4 °F 55.4 °F 100% 30.15 in 0.1 mi SE 10.4 mph - N/A Fog Fog
9:00 AM 55.4 °F 55.4 °F 100% 30.15 in 0.1 mi SE 11.5 mph - N/A Fog Fog
9:30 AM 57.2 °F 57.2 °F 100% 30.15 in 5.6 mi SE 10.4 mph - N/A   Mostly Cloudy
10:00 AM 59.0 °F 57.2 °F 94% 30.15 in 6.2 mi SE 12.7 mph - N/A   Mostly Cloudy
10:30 AM 59.0 °F 59.0 °F 100% 30.15 in 6.2 mi SE 13.8 mph - N/A   Mostly Cloudy
11:00 AM 60.8 °F 59.0 °F 94% 30.15 in 6.2 mi SE 16.1 mph - N/A   Scattered Clouds
11:30 AM 62.6 °F 59.0 °F 88% 30.12 in 6.2 mi SE 16.1 mph 27.6 mph N/A   Mostly Cloudy
12:00 PM 62.6 °F 59.0 °F 88% 30.15 in 6.2 mi SE 13.8 mph - N/A   Mostly Cloudy
12:30 PM 64.4 °F 59.0 °F 83% 30.15 in 6.2 mi SE 12.7 mph - N/A   Mostly Cloudy
1:00 PM 65 °F 60 °F 78% 30.15 in 22 mi SE 11.2 mph - -   Partly Cloudy
1:00 PM 66.2 °F 59.0 °F 78% 30.15 in 6.2 mi SE 10.4 mph - N/A   Mostly Cloudy
1:30 PM 66.2 °F 60.8 °F 83% 30.15 in 6.2 mi ESE 9.2 mph - N/A   Mostly Cloudy
2:00 PM 68.0 °F 60.8 °F 78% 30.12 in 6.2 mi SSE 11.5 mph - N/A   Scattered Clouds
2:30 PM 69.8 °F 62.6 °F 78% 30.12 in 6.2 mi SE 9.2 mph - N/A   Scattered Clouds
3:00 PM 69.8 °F 62.6 °F 78% 30.09 in 6.2 mi SE 11.5 mph - N/A   Mostly Cloudy
3:30 PM 68.0 °F 62.6 °F 83% 30.09 in 6.2 mi SE 12.7 mph - N/A   Scattered Clouds
4:00 PM 68.0 °F 62.6 °F 83% 30.09 in 6.2 mi ESE 12.7 mph - N/A   Scattered Clouds
4:30 PM 69.8 °F 62.6 °F 78% 30.09 in 6.2 mi ESE 11.5 mph - N/A   Scattered Clouds
5:00 PM 68.0 °F 62.6 °F 83% 30.06 in 6.2 mi SE 13.8 mph - N/A   Scattered Clouds
5:30 PM 68.0 °F 62.6 °F 83% 30.06 in 6.2 mi ESE 12.7 mph - N/A   Scattered Clouds
6:00 PM 66.2 °F 60.8 °F 83% 30.06 in 6.2 mi SE 13.8 mph - N/A   Scattered Clouds
7:00 PM 64 °F 61 °F 86% 30.06 in 22 mi SE 17.9 mph - -   Partly Cloudy
7:00 PM 64.4 °F 60.8 °F 88% 30.06 in 6.2 mi SE 17.3 mph - N/A   Scattered Clouds
7:30 PM 62.6 °F 60.8 °F 94% 30.06 in 6.2 mi SE 11.5 mph - N/A   Mostly Cloudy